Terminal Aerodrome Forecast
Issued by NWS

Home | Current Version | Previous Version | Text Only | Print | Product List | Glossary On
Versions: 1 2 3 4 5 6 7 8 9 10 11 12 13 14 15 16 17 18 19 20 21 22 23 24 25 26 27 28 29 30 31 32 33 34 35 36 37 38 39 40 41
000
FTPA31 PHFO 210200 AAC
TAFLIH
TAF AMD
PHLI 210201Z 2102/2124 05017G25KT P6SM VCSH BKN020 OVC035
      TEMPO 2102/2104 05014KT BKN030 OVC045
     FM211800 05020G28KT P6SM SCT025 BKN040=

USA.gov is the U.S. government's official web portal to all federal, state and local government web resources and services.